This is the latest recevied weather packets stored in our database for station/object KM8V-8. If no packets are shown the sender has not sent any weather packets the latest 10 day(s).
| Time | Temp. | Humidity | Pressure | Rain* | Wind** | Luminosity | Snow |
|---|---|---|---|---|---|---|---|
| 1777760720 | 7.22° C | 56% | 1016.2 hPa | 0 mm | - | 152 W/m² | - |
| 1777760119 | 7.22° C | 55% | 1016.2 hPa | 0 mm | - | 185 W/m² | - |
| 1777759819 | 7.78° C | 55% | 1016.2 hPa | 0 mm | - | 196 W/m² | - |
| 1777759519 | 7.22° C | 58% | 1016.2 hPa | 0 mm | - | 217 W/m² | - |
| 1777758919 | 7.22° C | 59% | 1016.2 hPa | 0 mm | - | 241 W/m² | - |
| 1777758619 | 7.22° C | 58% | 1016.2 hPa | 0 mm | - | 224 W/m² | - |
| 1777758020 | 7.22° C | 59% | 1016.1 hPa | 0 mm | - | 250 W/m² | - |
| 1777757720 | 7.22° C | 62% | 1016.1 hPa | 0 mm | - | 252 W/m² | - |
| 1777757420 | 6.67° C | 61% | 1016.1 hPa | 0 mm | - | 275 W/m² | - |
| 1777757119 | 6.67° C | 61% | 1016.1 hPa | 0 mm | - | 350 W/m² | - |
| 1777756520 | 6.67° C | 61% | 1016.2 hPa | 0 mm | - | 265 W/m² | - |
| 1777756220 | 6.67° C | 63% | 1016.2 hPa | 0 mm | - | 223 W/m² | - |
| 1777755920 | 6.11° C | 63% | 1016.2 hPa | 0 mm | - | 198 W/m² | - |
| 1777755021 | 6.67° C | 63% | 1016.3 hPa | 0 mm | - | 134 W/m² | - |
| 1777754722 | 6.67° C | 62% | 1016.2 hPa | 0 mm | - | 116 W/m² | - |
| 1777754421 | 6.67° C | 61% | 1016.3 hPa | 0 mm | - | 120 W/m² | - |
| 1777753821 | 6.67° C | 61% | 1016.3 hPa | 0 mm | - | 125 W/m² | - |
| 1777753520 | 6.67° C | 61% | 1016.2 hPa | 0 mm | - | 144 W/m² | - |
| 1777753221 | 6.67° C | 60% | 1016.3 hPa | 0 mm | - | 198 W/m² | - |
| 1777752921 | 6.67° C | 59% | 1016.3 hPa | 0 mm | - | 246 W/m² | - |
| 1777752621 | 6.67° C | 59% | 1016.3 hPa | 0 mm | - | 247 W/m² | - |
| 1777752321 | 6.67° C | 59% | 1016.3 hPa | 0 mm | - | 260 W/m² | - |
| 1777752018 | 7.22° C | 58% | 1016.3 hPa | 0 mm | - | 301 W/m² | - |
| 1777751721 | 7.22° C | 58% | 1016.4 hPa | 0 mm | - | 355 W/m² | - |
| 1777751421 | 7.22° C | 57% | 1016.3 hPa | 0 mm | - | 403 W/m² | - |
* Rain latest hour (hover to see other rain measurements)
** Current wind speed in m/s (hover to see current wind gust speed)